Location: Millers Ferry
(32.0990°N, 87.3680°W)
Time: 10:23:00
(UTC-05:00)

CSL-04 Rocket - Visible Passes

Search period start: 23 October 2017 00:00
Search period end: 02 November 2017 00:00
Orbit: 805 x 861 km, 99.0° (Epoch: 23 October)

Date Brightness Start Highest point End Pass type
(mag) Time Alt. Az. Time Alt. Az. Time Alt. Az.
23 Oct 7.3 05:32:38 10° E 05:33:48 11° E 05:34:59 10° ESE visible
23 Oct 4.3 18:28:19 10° S 18:33:36 63° WSW 18:38:52 10° NNW visible
25 Oct 4.7 06:35:29 10° NNE 06:40:42 53° ESE 06:45:56 10° S visible
25 Oct 7.0 19:38:07 10° WSW 19:40:26 13° W 19:42:45 10° WNW visible
26 Oct 5.5 06:18:52 10° NNE 06:23:45 36° E 06:28:39 10° SSE visible
26 Oct 6.5 19:19:37 10° SW 19:23:24 20° W 19:27:10 10° NW visible
27 Oct 6.2 06:02:28 10° NE 06:06:46 24° E 06:11:04 10° SSE visible
27 Oct 5.8 19:01:49 10° SSW 19:06:23 29° W 19:10:57 10° NW visible
28 Oct 6.8 05:46:28 10° ENE 05:49:45 16° E 05:53:02 10° SE visible
28 Oct 5.0 18:44:23 10° S 18:49:25 43° W 18:54:27 10° NNW visible
29 Oct 7.3 05:31:56 10° E 05:32:41 10° E 05:33:27 10° E visible
29 Oct 4.2 18:27:13 10° S 18:32:29 65° WSW 18:37:44 10° NNW visible
31 Oct 4.7 06:34:21 10° NNE 06:39:35 51° E 06:44:51 10° S visible
31 Oct 6.9 19:36:50 10° WSW 19:39:18 13° W 19:41:48 10° WNW visible
01 Nov 5.6 06:17:45 10° NNE 06:22:38 35° E 06:27:33 10° SSE visible
01 Nov 6.4 19:18:25 10° SW 19:22:16 20° W 19:26:07 10° NW visible
